User: anonymous   Login
Location: Wawayanda State Park
(41.1833°N, 74.4333°W)
Time: 13:36:10
(UTC-04:00)
Language:

RESURS DK-1 - Orbit

View from above orbital plane
View from above orbital plane
View from above satellite
View from above satellite

Ground track
Ground track

The orbit data is extracted from the following two-line orbital elements,

1 29228U 06021A   15188.09081762  .00000883  00000-0  75523-4 0  9993
2 29228 069.9383 106.4913 0005613 318.7282 161.3296 15.01532541501330
Epoch (UTC): 07 July 2015 02:10:46
Eccentricity: 0.0005613
inclination: 69.9383°
perigee height: 558 km
apogee height: 566 km
right ascension of ascending node: 106.4913°
argument of perigee: 318.7282°
revolutions per day: 15.01532541
mean anomaly at epoch: 161.3296°
orbit number at epoch: 50133

The dashed part of the orbit path shows where the satellite is in the earth's shadow,  

DLR